INTELSAT 22 (IS-22) (38098 NORAD) Tracking and Keplerian Element Data

This shows tracking and keplerian element data for the satellite.

Feedback or suggestion? Click here.




ElementValue
Catalog38098
NameINTELSAT 22 (IS-22)
Epoch Orbit3842
Epoch Day270.04371008
Epoch Year2022
RAAN145.9469
Inclination0.0274
Eccentricity0.0002838
Argument of Perigee49.4148
Mean Anonmoly258.2829
Mean Motion1.00270954
Decay Rate-5.5E-07
L11 38098U 12011A 22270.04371008 -.00000055 00000+0 00000+0 0 9998
L22 38098 0.0274 145.9469 0002838 49.4148 258.2829 1.00270954 38423

Live tracking and technical data element details for INTELSAT 22 (IS-22) (NORAD 38098). INTELSAT 22 (IS-22) can be tracked NOW for your location showing map with azimuth and elevation plus other details from your city location.

Track the satellite on the map from your city or location and see movement details for azimuth, elevation, latitude, longitude, range, height, and movement on the map or in text.







IsCatalogInMostPopularTable: catalog: 38098, numindb: 651
Update: records affected: 1



GetName: 38098 INTELSAT 22 (IS-22)

Hit Count: updated at: Thu, 29 Sep 2022 12:09:45 GMT